Simultaneous Nadir Overpasses (SNOs) Predictions

Prediction of SNOs over PacNW region [( 10.00, 139.50) to ( 22.70, 165.60)] between AQUA and NPP Satellites:

Table of predicted SNOs over PacNW region for the next 30.0 days since TLE Epoch: 4/22/2023
Index Date (AQUA) Time (AQUA) AQUA Lat,Lon Date (NPP) Time (NPP) NPP Lat,Lon Distance(km) Time Diff (sec)
1 04/27/2023 15:37:30 22.62, 155.97 04/27/2023 15:38:28 23.76, 151.09 514.51 58
2 04/30/2023 03:57:08 22.66, 144.16 04/30/2023 03:54:34 21.78, 139.73 466.76 154
3 05/10/2023 14:57:31 13.62, 164.64 05/10/2023 14:56:21 14.56, 160.00 511.93 70
4 05/10/2023 16:33:51 22.63, 142.01 05/10/2023 16:35:13 23.82, 136.87 541.99 82
